Location: Brookfield Center
(41.2406°N, 80.5579°W)
Time: 21:44:09
(UTC+00:00)

STARLINK-44 - Pass Details

Date: 18 January 2020
Orbit: 529 x 531 km, 53.0° (Epoch: 17 February)

Event Time Altitude Azimuth Distance (km) Brightness Sun altitude
Exits shadow 11:26:36 - 219° (SW) 2,683 6.9 -14.5°
Rises 11:26:40 0° 219° (SW) 2,652 6.9 -14.5°
Reaches altitude 10° 11:28:54 10° 215° (SW) 1,767 6.0 -14.1°
Maximum altitude 11:32:49 56° 137° (SE) 636 4.2 -13.4°
Drops below altitude 10° 11:36:46 10° 59° (ENE) 1,779 6.8 -12.6°
Sets 11:39:01 0° 55° (NE) 2,673 7.7 -12.2°
